This demonstration page uses our WeatherBlox Daily Observations layout. Learn more.

Left ArrowRight Arrow

39.95238, -75.16362

Hourly Observations for April 29, 2022

Temp ( °F °C ) Dew Point ( °F °C ) Humidity (%) Winds ( mph kmh ) Pressure ( in mb ) Visibility ( mi km ) Precip ( " mm )
12:54 am 00:54 Clear 48 8.9 8 -13.3 19 19 NNW 14 22 30.16 1021 10 16 0.00 0.00
1:54 am 01:54 Clear 46 7.8 8 -13.3 21 21 NW 7 11 30.16 1021 10 16 0.00 0.00
2:54 am 02:54 Clear 45 7.2 9 -12.8 23 23 NW 5 7 30.16 1021 10 16 0.00 0.00
3:54 am 03:54 Clear 45 7.2 11 -11.7 25 25 WNW 9 15 30.17 1022 10 16 0.00 0.00
4:54 am 04:54 Clear 43 6.1 12 -11.1 28 28 NW 6 9 30.17 1022 10 16 0.00 0.00
5:54 am 05:54 Mostly Clear 44 6.7 13 -10.6 28 28 NW 9 15 30.18 1022 10 16 0.00 0.00
6:54 am 06:54 Mostly Sunny 44 6.7 14 -10 30 30 WNW 9 15 30.19 1023 10 16 0.00 0.00
7:54 am 07:54 Mostly Sunny 47 8.3 15 -9.4 28 28 NW 14 22 30.21 1023 10 16 0.00 0.00
8:54 am 08:54 Mostly Sunny 49 9.4 15 -9.4 26 26 NNW 16 26 30.20 1023 10 16 0.00 0.00
9:54 am 09:54 Mostly Sunny 51 10.6 15 -9.4 24 24 NNW 14 22 30.19 1022 10 16 0.00 0.00
10:54 am 10:54 Mostly Sunny 54 12.2 14 -10 20 20 NNW 15 24 30.18 1022 10 16 0.00 0.00
11:54 am 11:54 Mostly Sunny 56 13.3 15 -9.4 20 20 WNW 10 17 30.16 1021 10 16 0.00 0.00
12:54 pm 12:54 Mostly Sunny 59 15 15 -9.4 18 18 WNW 15 24 30.13 1020 10 16 0.00 0.00
1:54 pm 13:54 Mostly Sunny 61 16.1 13 -10.6 15 15 NW 18 30 30.10 1019 10 16 0.00 0.00
2:02 pm 14:02 Mostly Sunny 61 16.1 13 -10.6 15 15 WNW 17 28 30.10 1019 10 16 0.00 0.00
2:54 pm 14:54 Mostly Sunny 63 17.2 13 -10.6 14 14 WNW 18 30 30.09 1019 10 16 0.00 0.00
3:54 pm 15:54 Sunny 64 17.8 13 -10.6 13 13 NW 20 31 30.06 1018 10 16 0.00 0.00
4:54 pm 16:54 Sunny 65 18.3 12 -11.1 13 13 NW 20 31 30.05 1018 10 16 0.00 0.00
5:54 pm 17:54 Sunny 65 18.3 11 -11.7 12 12 WNW 13 20 30.05 1018 10 16 0.00 0.00
6:54 pm 18:54 Sunny 64 17.8 11 -11.7 12 12 NW 14 22 30.05 1018 10 16 0.00 0.00
7:54 pm 19:54 Clear 63 17.2 13 -10.6 14 14 NW 9 15 30.06 1018 10 16 0.00 0.00
8:54 pm 20:54 Clear 59 15 10 -12.2 14 14 NNW 10 17 30.09 1019 10 16 0.00 0.00
9:54 pm 21:54 Clear 57 13.9 11 -11.7 16 16 N 9 15 30.12 1020 10 16 0.00 0.00
10:54 pm 22:54 Clear 54 12.2 14 -10 20 20 NNE 12 19 30.14 1021 10 16 0.00 0.00
11:54 pm 23:54 Clear 54 12.2 13 -10.6 19 19 N 13 20 30.16 1021 10 16 0.00 0.00

Powered by AerisWeather